Time,TemperatureF,DewpointF,PressureIn,WindDirection,WindDirectionDegrees,WindSpeedMPH,WindSpeedGustMPH,Humidity,HourlyPrecipIn,Conditions,Clouds,dailyrainin,SoftwareType,DateUTC
2013-01-31 00:04:00,55.3,55.0,29.39,SW,229,1.0,1.0,99,0.00,,,0.00,Wunderground v.1.15,2013-01-31 05:04:00,
2013-01-31 00:09:00,55.1,54.8,29.39,WSW,256,1.0,2.0,99,0.00,,,0.00,Wunderground v.1.15,2013-01-31 05:09:00,
2013-01-31 00:14:00,55.1,54.8,29.37,SW,227,1.0,2.0,99,0.00,,,0.00,Wunderground v.1.15,2013-01-31 05:14:00,
2013-01-31 00:19:00,55.1,54.8,29.37,SW,222,1.0,1.0,99,0.00,,,0.00,Wunderground v.1.15,2013-01-31 05:19:00,
2013-01-31 00:24:00,55.4,55.1,29.37,NE,52,1.0,1.0,99,0.00,,,0.00,Wunderground v.1.15,2013-01-31 05:24:00,
2013-01-31 00:29:00,55.4,55.1,29.36,West,261,2.0,5.0,99,0.00,,,0.00,Wunderground v.1.15,2013-01-31 05:29:00,
2013-01-31 00:34:00,55.4,55.1,29.36,SW,226,1.0,5.0,99,0.00,,,0.00,Wunderground v.1.15,2013-01-31 05:34:00,
2013-01-31 00:39:00,55.6,55.3,29.36,WSW,243,1.0,2.0,99,0.00,,,0.00,Wunderground v.1.15,2013-01-31 05:39:00,
2013-01-31 00:44:00,55.6,55.3,29.33,SW,224,2.0,2.0,99,0.00,,,0.00,Wunderground v.1.15,2013-01-31 05:44:00,
2013-01-31 00:49:00,55.3,55.0,29.33,NW,325,2.0,3.0,99,0.00,,,0.00,Wunderground v.1.15,2013-01-31 05:49:00,
2013-01-31 00:55:00,55.7,55.4,29.33,SW,229,2.0,3.0,99,0.00,,,0.00,Wunderground v.1.15,2013-01-31 05:55:00,
2013-01-31 01:00:00,55.9,55.6,29.32,WSW,254,2.0,2.0,99,0.00,,,0.00,Wunderground v.1.15,2013-01-31 06:00:00,
2013-01-31 01:10:00,56.0,55.7,29.32,SW,236,3.0,4.0,99,0.00,,,0.00,Wunderground v.1.15,2013-01-31 06:10:00,
2013-01-31 01:15:00,56.2,55.9,29.30,SSW,210,2.0,4.0,99,0.00,,,0.00,Wunderground v.1.15,2013-01-31 06:15:00,
2013-01-31 01:20:00,56.2,55.9,29.30,SW,222,2.0,2.0,99,0.00,,,0.00,Wunderground v.1.15,2013-01-31 06:20:00,
2013-01-31 01:25:00,56.3,56.0,29.30,SW,222,2.0,2.0,99,0.00,,,0.00,Wunderground v.1.15,2013-01-31 06:25:00,
2013-01-31 01:35:00,56.3,56.0,29.28,SW,226,2.0,2.0,99,0.00,,,0.00,Wunderground v.1.15,2013-01-31 06:35:00,
2013-01-31 01:40:00,56.7,56.4,29.28,SW,226,3.0,5.0,99,0.00,,,0.00,Wunderground v.1.15,2013-01-31 06:40:00,
2013-01-31 01:45:00,56.9,56.6,29.27,SW,217,4.0,5.0,99,0.00,,,0.00,Wunderground v.1.15,2013-01-31 06:45:00,
2013-01-31 01:50:00,57.0,56.7,29.27,SW,226,3.0,3.0,99,0.00,,,0.00,Wunderground v.1.15,2013-01-31 06:50:00,
2013-01-31 01:55:00,56.9,56.6,29.27,SW,227,2.0,4.0,99,0.00,,,0.00,Wunderground v.1.15,2013-01-31 06:55:00,
2013-01-31 02:00:00,57.0,56.7,29.25,SW,227,3.0,3.0,99,0.00,,,0.00,Wunderground v.1.15,2013-01-31 07:00:00,
2013-01-31 02:10:00,57.3,57.0,29.25,West,278,4.0,4.0,99,0.00,,,0.00,Wunderground v.1.15,2013-01-31 07:10:00,
2013-01-31 02:15:00,57.6,57.0,29.24,SW,222,5.0,5.0,98,0.00,,,0.01,Wunderground v.1.15,2013-01-31 07:15:00,
2013-01-31 02:20:00,57.5,56.9,29.24,SSW,200,4.0,10.0,98,0.12,,,0.02,Wunderground v.1.15,2013-01-31 07:20:00,
2013-01-31 02:25:00,57.6,57.0,29.24,SSW,192,3.0,10.0,98,0.06,,,0.02,Wunderground v.1.15,2013-01-31 07:25:00,
2013-01-31 02:34:00,57.6,57.0,29.22,SSW,212,3.0,7.0,98,0.00,,,0.02,Wunderground v.1.15,2013-01-31 07:34:00,
2013-01-31 02:40:00,57.5,56.9,29.22,WSW,243,3.0,7.0,98,0.00,,,0.02,Wunderground v.1.15,2013-01-31 07:40:00,
2013-01-31 02:45:00,57.5,56.9,29.20,SSW,198,3.0,7.0,98,0.00,,,0.02,Wunderground v.1.15,2013-01-31 07:45:00,
2013-01-31 02:54:00,57.6,57.0,29.20,SW,219,3.0,7.0,98,0.00,,,0.02,Wunderground v.1.15,2013-01-31 07:54:00,
2013-01-31 02:59:00,57.8,57.2,29.17,SW,223,3.0,7.0,98,0.00,,,0.02,Wunderground v.1.15,2013-01-31 07:59:00,
2013-01-31 03:05:00,58.0,57.4,29.17,SW,233,4.0,7.0,98,0.00,,,0.02,Wunderground v.1.15,2013-01-31 08:05:00,
2013-01-31 03:14:00,58.1,57.5,29.15,SW,215,4.0,7.0,98,0.00,,,0.02,Wunderground v.1.15,2013-01-31 08:14:00,
2013-01-31 03:19:00,58.1,57.5,29.15,SW,233,4.0,7.0,98,0.00,,,0.02,Wunderground v.1.15,2013-01-31 08:19:00,
2013-01-31 03:25:00,58.1,57.5,29.15,SW,233,4.0,7.0,98,0.00,,,0.03,Wunderground v.1.15,2013-01-31 08:25:00,
2013-01-31 03:30:00,58.3,57.7,29.13,SW,216,4.0,4.0,98,0.00,,,0.03,Wunderground v.1.15,2013-01-31 08:30:00,
2013-01-31 03:35:00,58.3,57.7,29.13,WSW,243,4.0,7.0,98,0.00,,,0.03,Wunderground v.1.15,2013-01-31 08:35:00,
2013-01-31 03:40:00,58.3,57.7,29.13,SW,223,4.0,4.0,98,0.00,,,0.03,Wunderground v.1.15,2013-01-31 08:40:00,
2013-01-31 03:50:00,58.3,57.7,29.11,SW,236,3.0,7.0,98,0.00,,,0.03,Wunderground v.1.15,2013-01-31 08:50:00,
2013-01-31 03:55:00,58.3,57.7,29.11,SW,220,4.0,7.0,98,0.00,,,0.03,Wunderground v.1.15,2013-01-31 08:55:00,
2013-01-31 04:00:00,58.6,58.0,29.09,East,89,4.0,7.0,98,0.00,,,0.03,Wunderground v.1.15,2013-01-31 09:00:00,
2013-01-31 04:05:00,58.4,57.6,29.09,WSW,241,4.0,7.0,97,0.00,,,0.03,Wunderground v.1.15,2013-01-31 09:05:00,
2013-01-31 04:10:00,58.4,57.6,29.09,West,281,4.0,4.0,97,0.00,,,0.04,Wunderground v.1.15,2013-01-31 09:10:00,
2013-01-31 04:20:00,58.6,57.8,29.06,WSW,246,4.0,4.0,97,0.00,,,0.04,Wunderground v.1.15,2013-01-31 09:20:00,
2013-01-31 04:25:00,58.6,57.8,29.06,West,267,5.0,5.0,97,0.00,,,0.04,Wunderground v.1.15,2013-01-31 09:25:00,
2013-01-31 04:30:00,58.7,57.6,29.05,SW,224,4.0,4.0,96,0.00,,,0.04,Wunderground v.1.15,2013-01-31 09:30:00,
2013-01-31 04:35:00,58.7,57.6,29.05,SSW,196,3.0,10.0,96,0.00,,,0.04,Wunderground v.1.15,2013-01-31 09:35:00,
2013-01-31 04:44:00,59.0,57.9,29.04,SW,227,5.0,5.0,96,0.00,,,0.04,Wunderground v.1.15,2013-01-31 09:44:00,
2013-01-31 04:50:00,59.2,57.8,29.04,SSW,208,5.0,13.0,95,0.00,,,0.04,Wunderground v.1.15,2013-01-31 09:50:00,
2013-01-31 04:59:00,59.3,57.9,29.03,SSW,212,5.0,5.0,95,0.00,,,0.04,Wunderground v.1.15,2013-01-31 09:59:00,
2013-01-31 05:04:00,59.2,57.5,29.03,West,267,4.0,7.0,94,0.00,,,0.04,Wunderground v.1.15,2013-01-31 10:04:00,
2013-01-31 05:09:00,59.5,58.1,29.03,SW,230,4.0,7.0,95,0.00,,,0.04,Wunderground v.1.15,2013-01-31 10:09:00,
2013-01-31 05:14:00,59.6,57.9,29.02,WSW,244,5.0,13.0,94,0.00,,,0.04,Wunderground v.1.15,2013-01-31 10:14:00,
2013-01-31 05:19:00,59.6,57.9,29.02,West,264,4.0,7.0,94,0.00,,,0.04,Wunderground v.1.15,2013-01-31 10:19:00,
2013-01-31 05:29:00,59.2,57.5,29.00,SSW,202,5.0,5.0,94,0.10,,,0.06,Wunderground v.1.15,2013-01-31 10:29:00,
2013-01-31 05:34:00,59.0,57.6,29.00,WSW,247,5.0,7.0,95,0.14,,,0.07,Wunderground v.1.15,2013-01-31 10:34:00,
2013-01-31 05:40:00,58.9,57.5,29.00,WSW,247,5.0,7.0,95,0.24,,,0.09,Wunderground v.1.15,2013-01-31 10:40:00,
2013-01-31 05:45:00,58.7,57.3,28.98,SE,126,5.0,7.0,95,0.13,,,0.10,Wunderground v.1.15,2013-01-31 10:45:00,
2013-01-31 05:50:00,58.6,57.5,28.98,WSW,243,5.0,9.0,96,0.10,,,0.11,Wunderground v.1.15,2013-01-31 10:50:00,
2013-01-31 06:00:00,58.6,57.5,28.95,WSW,237,6.0,7.0,96,0.07,,,0.12,Wunderground v.1.15,2013-01-31 11:00:00,
2013-01-31 06:05:00,58.4,57.3,28.95,SW,223,5.0,7.0,96,0.27,,,0.14,Wunderground v.1.15,2013-01-31 11:05:00,
2013-01-31 06:10:00,58.4,57.3,28.95,SSW,213,5.0,5.0,96,0.30,,,0.16,Wunderground v.1.15,2013-01-31 11:10:00,
2013-01-31 06:15:00,58.4,57.3,28.92,NW,316,5.0,6.0,96,0.09,,,0.16,Wunderground v.1.15,2013-01-31 11:15:00,
2013-01-31 06:20:00,58.4,57.3,28.92,SSW,209,6.0,6.0,96,0.05,,,0.16,Wunderground v.1.15,2013-01-31 11:20:00,
2013-01-31 06:25:00,58.4,57.3,28.92,West,271,6.0,7.0,96,0.05,,,0.17,Wunderground v.1.15,2013-01-31 11:25:00,
2013-01-31 06:35:00,58.3,57.5,28.93,SW,219,4.0,7.0,97,0.10,,,0.19,Wunderground v.1.15,2013-01-31 11:35:00,
2013-01-31 06:40:00,58.4,57.6,28.93,WSW,253,4.0,7.0,97,0.13,,,0.20,Wunderground v.1.15,2013-01-31 11:40:00,
2013-01-31 06:45:00,58.3,57.5,28.93,WSW,244,5.0,7.0,97,0.09,,,0.21,Wunderground v.1.15,2013-01-31 11:45:00,
2013-01-31 06:50:00,58.3,57.5,28.93,WSW,257,5.0,7.0,97,0.13,,,0.22,Wunderground v.1.15,2013-01-31 11:50:00,
2013-01-31 06:55:00,58.1,57.3,28.93,WSW,247,5.0,7.0,97,0.18,,,0.24,Wunderground v.1.15,2013-01-31 11:55:00,
2013-01-31 07:05:00,58.1,57.3,28.94,West,265,3.0,7.0,97,0.14,,,0.26,Wunderground v.1.15,2013-01-31 12:05:00,
2013-01-31 07:10:00,58.0,57.2,28.94,SW,236,2.0,2.0,97,0.06,,,0.26,Wunderground v.1.15,2013-01-31 12:10:00,
2013-01-31 07:19:00,57.6,56.8,28.95,West,261,1.0,7.0,97,0.32,,,0.28,Wunderground v.1.15,2013-01-31 12:19:00,
2013-01-31 07:24:00,57.5,56.9,28.95,WNW,284,1.0,7.0,98,0.09,,,0.28,Wunderground v.1.15,2013-01-31 12:24:00,
2013-01-31 07:29:00,57.5,56.9,28.93,WSW,244,1.0,7.0,98,0.05,,,0.28,Wunderground v.1.15,2013-01-31 12:29:00,
2013-01-31 07:39:00,57.3,56.7,28.93,South,185,1.0,1.0,98,0.00,,,0.28,Wunderground v.1.15,2013-01-31 12:39:00,
2013-01-31 07:44:00,57.3,56.7,28.91,SW,220,1.0,2.0,98,0.00,,,0.29,Wunderground v.1.15,2013-01-31 12:44:00,
2013-01-31 07:49:00,57.2,56.6,28.91,SW,236,1.0,1.0,98,0.00,,,0.29,Wunderground v.1.15,2013-01-31 12:49:00,
2013-01-31 07:54:00,57.0,56.4,28.91,WSW,241,1.0,7.0,98,0.00,,,0.29,Wunderground v.1.15,2013-01-31 12:54:00,
2013-01-31 07:59:00,56.9,56.3,28.91,SSE,162,1.0,7.0,98,0.00,,,0.29,Wunderground v.1.15,2013-01-31 12:59:00,
2013-01-31 08:04:00,56.7,55.9,28.91,WSW,241,1.0,7.0,97,0.00,,,0.29,Wunderground v.1.15,2013-01-31 13:04:00,
2013-01-31 08:14:00,56.5,55.7,28.89,SW,219,2.0,7.0,97,0.00,,,0.29,Wunderground v.1.15,2013-01-31 13:14:00,
2013-01-31 08:20:00,56.3,55.2,28.89,SW,226,2.0,7.0,96,0.00,,,0.29,Wunderground v.1.15,2013-01-31 13:20:00,
2013-01-31 08:25:00,56.2,55.1,28.89,West,265,2.0,7.0,96,0.00,,,0.29,Wunderground v.1.15,2013-01-31 13:25:00,
2013-01-31 08:30:00,56.0,54.6,28.88,WSW,247,2.0,7.0,95,0.00,,,0.29,Wunderground v.1.15,2013-01-31 13:30:00,
2013-01-31 08:35:00,55.9,54.5,28.88,WSW,244,1.0,7.0,95,0.00,,,0.29,Wunderground v.1.15,2013-01-31 13:35:00,
2013-01-31 08:45:00,55.9,54.5,28.88,SW,229,3.0,6.0,95,0.00,,,0.29,Wunderground v.1.15,2013-01-31 13:45:00,
2013-01-31 08:50:00,55.9,54.2,28.88,West,263,3.0,3.0,94,0.00,,,0.29,Wunderground v.1.15,2013-01-31 13:50:00,
2013-01-31 08:55:00,55.9,54.2,28.88,SW,224,2.0,4.0,94,0.00,,,0.29,Wunderground v.1.15,2013-01-31 13:55:00,
2013-01-31 09:00:00,55.7,53.7,28.88,SE,124,2.0,2.0,93,0.00,,,0.29,Wunderground v.1.15,2013-01-31 14:00:00,
2013-01-31 09:05:00,55.9,53.6,28.88,SSW,202,3.0,13.0,92,0.00,,,0.29,Wunderground v.1.15,2013-01-31 14:05:00,
2013-01-31 09:10:00,56.2,53.6,28.88,SW,217,3.0,3.0,91,0.00,,,0.29,Wunderground v.1.15,2013-01-31 14:10:00,
2013-01-31 09:20:00,56.0,53.1,28.85,West,261,3.0,3.0,90,0.00,,,0.30,Wunderground v.1.15,2013-01-31 14:20:00,
2013-01-31 09:25:00,53.9,48.2,28.85,West,261,3.0,7.0,81,0.30,,,0.32,Wunderground v.1.15,2013-01-31 14:25:00,
2013-01-31 09:30:00,51.7,47.0,28.92,NW,308,2.0,7.0,84,0.08,,,0.32,Wunderground v.1.15,2013-01-31 14:30:00,
2013-01-31 09:35:00,50.4,46.1,28.92,West,271,1.0,7.0,85,0.05,,,0.32,Wunderground v.1.15,2013-01-31 14:35:00,
2013-01-31 09:40:00,49.2,45.2,28.92,NW,313,1.0,7.0,86,0.00,,,0.32,Wunderground v.1.15,2013-01-31 14:40:00,
2013-01-31 09:50:00,47.4,44.0,28.95,West,265,1.0,1.0,88,0.00,,,0.33,Wunderground v.1.15,2013-01-31 14:50:00,
2013-01-31 09:55:00,46.7,43.3,28.95,SW,216,1.0,7.0,88,0.00,,,0.33,Wunderground v.1.15,2013-01-31 14:55:00,
2013-01-31 10:04:00,45.7,42.6,28.96,NW,322,1.0,10.0,89,0.06,,,0.34,Wunderground v.1.15,2013-01-31 15:04:00,
2013-01-31 10:09:00,45.2,42.2,28.96,WSW,240,1.0,1.0,89,0.04,,,0.34,Wunderground v.1.15,2013-01-31 15:09:00,
2013-01-31 10:14:00,44.6,41.6,28.99,SW,229,1.0,7.0,89,0.00,,,0.34,Wunderground v.1.15,2013-01-31 15:14:00,
2013-01-31 10:24:00,43.3,40.0,28.99,WNW,285,2.0,7.0,88,0.00,,,0.35,Wunderground v.1.15,2013-01-31 15:24:00,
2013-01-31 10:29:00,42.9,39.6,28.99,NW,319,2.0,7.0,88,0.07,,,0.36,Wunderground v.1.15,2013-01-31 15:29:00,
2013-01-31 10:34:00,42.3,39.0,28.99,WSW,239,1.0,7.0,88,0.06,,,0.36,Wunderground v.1.15,2013-01-31 15:34:00,
2013-01-31 10:39:00,41.8,39.4,28.99,South,186,1.0,7.0,91,0.04,,,0.36,Wunderground v.1.15,2013-01-31 15:39:00,
2013-01-31 10:44:00,41.8,39.9,29.00,WNW,294,1.0,7.0,93,0.00,,,0.36,Wunderground v.1.15,2013-01-31 15:44:00,
2013-01-31 10:49:00,42.2,39.8,29.00,WSW,247,1.0,1.0,91,0.00,,,0.36,Wunderground v.1.15,2013-01-31 15:49:00,
2013-01-31 10:59:00,42.6,39.6,29.01,ESE,102,1.0,7.0,89,0.00,,,0.36,Wunderground v.1.15,2013-01-31 15:59:00,
2013-01-31 11:04:00,42.8,39.8,29.01,West,263,1.0,7.0,89,0.00,,,0.36,Wunderground v.1.15,2013-01-31 16:04:00,
2013-01-31 11:09:00,43.1,39.8,29.01,NNE,27,1.0,7.0,88,0.00,,,0.36,Wunderground v.1.15,2013-01-31 16:09:00,
2013-01-31 11:15:00,43.3,38.8,29.04,SSW,203,1.0,7.0,84,0.00,,,0.36,Wunderground v.1.15,2013-01-31 16:15:00,
2013-01-31 11:20:00,43.5,37.7,29.04,West,274,2.0,7.0,80,0.00,,,0.36,Wunderground v.1.15,2013-01-31 16:20:00,
2013-01-31 11:25:00,43.9,37.2,29.04,North,0,2.0,7.0,77,0.00,,,0.36,Wunderground v.1.15,2013-01-31 16:25:00,
2013-01-31 11:30:00,44.2,34.7,29.05,NNW,329,2.0,7.0,69,0.00,,,0.36,Wunderground v.1.15,2013-01-31 16:30:00,
2013-01-31 11:35:00,44.3,35.1,29.05,WNW,291,2.0,7.0,70,0.00,,,0.36,Wunderground v.1.15,2013-01-31 16:35:00,
2013-01-31 11:40:00,44.5,31.9,29.05,NW,306,3.0,7.0,61,0.00,,,0.36,Wunderground v.1.15,2013-01-31 16:40:00,
2013-01-31 11:45:00,44.6,32.4,29.07,NW,318,3.0,7.0,62,0.00,,,0.36,Wunderground v.1.15,2013-01-31 16:45:00,
2013-01-31 11:50:00,44.5,31.5,29.07,West,277,2.0,2.0,60,0.00,,,0.36,Wunderground v.1.15,2013-01-31 16:50:00,
2013-01-31 12:00:00,43.9,29.6,29.07,WNW,289,3.0,3.0,57,0.00,,,0.36,Wunderground v.1.15,2013-01-31 17:00:00,
2013-01-31 12:09:00,44.1,29.8,29.07,West,265,2.0,7.0,57,0.00,,,0.36,Wunderground v.1.15,2013-01-31 17:09:00,
2013-01-31 12:14:00,44.3,30.0,29.08,West,271,3.0,7.0,57,0.00,,,0.36,Wunderground v.1.15,2013-01-31 17:14:00,
2013-01-31 12:19:00,44.5,31.5,29.08,West,274,2.0,2.0,60,0.00,,,0.36,Wunderground v.1.15,2013-01-31 17:19:00,
2013-01-31 12:24:00,44.5,30.6,29.08,West,260,2.0,7.0,58,0.00,,,0.36,Wunderground v.1.15,2013-01-31 17:24:00,
2013-01-31 12:29:00,44.3,30.0,29.09,SSE,160,2.0,7.0,57,0.00,,,0.36,Wunderground v.1.15,2013-01-31 17:29:00,
2013-01-31 12:39:00,44.1,28.0,29.09,WNW,289,2.0,7.0,53,0.00,,,0.36,Wunderground v.1.15,2013-01-31 17:39:00,
2013-01-31 12:44:00,43.9,27.9,29.10,SW,229,2.0,7.0,53,0.00,,,0.36,Wunderground v.1.15,2013-01-31 17:44:00,
2013-01-31 12:49:00,43.9,28.3,29.10,SSW,199,1.0,7.0,54,0.00,,,0.36,Wunderground v.1.15,2013-01-31 17:49:00,
2013-01-31 12:54:00,43.8,26.3,29.10,SW,236,2.0,7.0,50,0.00,,,0.36,Wunderground v.1.15,2013-01-31 17:54:00,
2013-01-31 12:59:00,43.8,26.3,29.11,NW,305,2.0,7.0,50,0.00,,,0.36,Wunderground v.1.15,2013-01-31 17:59:00,
2013-01-31 13:09:00,43.5,26.1,29.11,WSW,258,2.0,2.0,50,0.00,,,0.36,Wunderground v.1.15,2013-01-31 18:09:00,
2013-01-31 13:14:00,43.3,24.9,29.11,SW,234,2.0,7.0,48,0.00,,,0.36,Wunderground v.1.15,2013-01-31 18:14:00,
2013-01-31 13:19:00,43.2,25.3,29.11,WSW,256,2.0,2.0,49,0.00,,,0.36,Wunderground v.1.15,2013-01-31 18:19:00,
2013-01-31 13:25:00,43.1,25.7,29.11,NNE,28,3.0,3.0,50,0.00,,,0.36,Wunderground v.1.15,2013-01-31 18:25:00,
2013-01-31 13:30:00,42.9,25.5,29.13,SW,215,3.0,3.0,50,0.00,,,0.36,Wunderground v.1.15,2013-01-31 18:30:00,
2013-01-31 13:35:00,42.8,24.4,29.13,WSW,247,2.0,7.0,48,0.00,,,0.36,Wunderground v.1.15,2013-01-31 18:35:00,
2013-01-31 13:45:00,42.5,25.1,29.14,WSW,253,2.0,7.0,50,0.00,,,0.36,Wunderground v.1.15,2013-01-31 18:45:00,
2013-01-31 13:50:00,42.3,23.5,29.14,NNE,27,2.0,7.0,47,0.00,,,0.36,Wunderground v.1.15,2013-01-31 18:50:00,
2013-01-31 13:55:00,42.2,24.4,29.14,East,88,2.0,7.0,49,0.00,,,0.36,Wunderground v.1.15,2013-01-31 18:55:00,
2013-01-31 14:00:00,42.1,24.8,29.15,NNW,339,2.0,7.0,50,0.00,,,0.36,Wunderground v.1.15,2013-01-31 19:00:00,
2013-01-31 14:05:00,41.9,23.1,29.15,WNW,289,2.0,7.0,47,0.00,,,0.36,Wunderground v.1.15,2013-01-31 19:05:00,
2013-01-31 14:15:00,41.6,22.3,29.17,WNW,288,2.0,7.0,46,0.00,,,0.36,Wunderground v.1.15,2013-01-31 19:15:00,
2013-01-31 14:20:00,41.5,22.2,29.17,SW,233,2.0,2.0,46,0.00,,,0.36,Wunderground v.1.15,2013-01-31 19:20:00,
2013-01-31 14:25:00,41.2,20.9,29.17,WNW,294,2.0,7.0,44,0.00,,,0.36,Wunderground v.1.15,2013-01-31 19:25:00,
2013-01-31 14:30:00,41.1,20.3,29.19,SSW,199,2.0,2.0,43,0.00,,,0.36,Wunderground v.1.15,2013-01-31 19:30:00,
2013-01-31 14:39:00,40.8,20.5,29.19,West,268,1.0,7.0,44,0.00,,,0.36,Wunderground v.1.15,2013-01-31 19:39:00,
2013-01-31 14:45:00,40.5,20.3,29.19,WSW,257,2.0,7.0,44,0.00,,,0.36,Wunderground v.1.15,2013-01-31 19:45:00,
2013-01-31 14:50:00,40.3,21.1,29.19,WNW,288,2.0,2.0,46,0.00,,,0.36,Wunderground v.1.15,2013-01-31 19:50:00,
2013-01-31 14:59:00,39.9,21.3,29.20,WSW,256,3.0,3.0,47,0.00,,,0.36,Wunderground v.1.15,2013-01-31 19:59:00,
2013-01-31 15:04:00,39.8,20.7,29.20,WSW,250,3.0,7.0,46,0.00,,,0.36,Wunderground v.1.15,2013-01-31 20:04:00,
2013-01-31 15:09:00,39.6,20.0,29.20,West,260,2.0,2.0,45,0.00,,,0.36,Wunderground v.1.15,2013-01-31 20:09:00,
2013-01-31 15:14:00,39.3,20.2,29.22,ENE,78,2.0,7.0,46,0.00,,,0.36,Wunderground v.1.15,2013-01-31 20:14:00,
2013-01-31 15:24:00,39.1,19.5,29.22,NW,319,2.0,7.0,45,0.00,,,0.36,Wunderground v.1.15,2013-01-31 20:24:00,
2013-01-31 15:29:00,38.8,19.2,29.24,WSW,241,1.0,7.0,45,0.00,,,0.36,Wunderground v.1.15,2013-01-31 20:29:00,
2013-01-31 15:34:00,38.5,19.0,29.24,NNW,340,1.0,7.0,45,0.00,,,0.36,Wunderground v.1.15,2013-01-31 20:34:00,
2013-01-31 15:39:00,38.3,20.8,29.24,WNW,285,2.0,7.0,49,0.00,,,0.36,Wunderground v.1.15,2013-01-31 20:39:00,
2013-01-31 15:44:00,38.0,16.9,29.25,NW,318,2.0,7.0,42,0.00,,,0.36,Wunderground v.1.15,2013-01-31 20:44:00,
2013-01-31 15:54:00,37.8,17.8,29.25,SE,126,3.0,7.0,44,0.00,,,0.36,Wunderground v.1.15,2013-01-31 20:54:00,
2013-01-31 15:59:00,37.5,18.1,29.26,NNW,347,3.0,3.0,45,0.00,,,0.36,Wunderground v.1.15,2013-01-31 20:59:00,
2013-01-31 16:04:00,37.3,18.4,29.26,SW,223,2.0,7.0,46,0.00,,,0.36,Wunderground v.1.15,2013-01-31 21:04:00,
2013-01-31 16:10:00,37.0,17.1,29.26,NNW,332,2.0,7.0,44,0.00,,,0.36,Wunderground v.1.15,2013-01-31 21:10:00,
2013-01-31 16:15:00,37.0,18.1,29.27,SW,232,2.0,7.0,46,0.00,,,0.36,Wunderground v.1.15,2013-01-31 21:15:00,
2013-01-31 16:20:00,36.9,18.5,29.27,ENE,61,1.0,7.0,47,0.00,,,0.36,Wunderground v.1.15,2013-01-31 21:20:00,
2013-01-31 16:30:00,36.8,17.9,29.28,West,261,1.0,7.0,46,0.00,,,0.36,Wunderground v.1.15,2013-01-31 21:30:00,
2013-01-31 16:35:00,36.8,17.9,29.28,NNW,336,1.0,7.0,46,0.00,,,0.36,Wunderground v.1.15,2013-01-31 21:35:00,
2013-01-31 16:40:00,36.6,18.2,29.28,NE,48,1.0,1.0,47,0.00,,,0.36,Wunderground v.1.15,2013-01-31 21:40:00,
2013-01-31 16:45:00,36.6,17.7,29.29,ESE,103,1.0,7.0,46,0.00,,,0.36,Wunderground v.1.15,2013-01-31 21:45:00,
2013-01-31 16:50:00,36.5,17.1,29.29,WNW,288,1.0,1.0,45,0.00,,,0.36,Wunderground v.1.15,2013-01-31 21:50:00,
2013-01-31 17:00:00,36.3,18.9,29.30,SSW,209,1.0,7.0,49,0.00,,,0.36,Wunderground v.1.15,2013-01-31 22:00:00,
2013-01-31 17:05:00,36.2,18.4,29.30,West,271,1.0,7.0,48,0.00,,,0.36,Wunderground v.1.15,2013-01-31 22:05:00,
2013-01-31 17:10:00,36.2,18.4,29.30,WSW,253,1.0,7.0,48,0.00,,,0.36,Wunderground v.1.15,2013-01-31 22:10:00,
2013-01-31 17:15:00,36.0,17.2,29.31,NW,323,1.0,7.0,46,0.00,,,0.36,Wunderground v.1.15,2013-01-31 22:15:00,
2013-01-31 17:20:00,36.0,16.7,29.31,South,178,1.0,1.0,45,0.00,,,0.36,Wunderground v.1.15,2013-01-31 22:20:00,
2013-01-31 17:25:00,35.9,18.6,29.31,South,182,0.0,7.0,49,0.00,,,0.36,Wunderground v.1.15,2013-01-31 22:25:00,
2013-01-31 17:35:00,35.6,18.3,29.32,West,278,1.0,7.0,49,0.00,,,0.36,Wunderground v.1.15,2013-01-31 22:35:00,
2013-01-31 17:40:00,35.5,17.2,29.32,WSW,241,1.0,7.0,47,0.00,,,0.36,Wunderground v.1.15,2013-01-31 22:40:00,
2013-01-31 17:45:00,35.5,17.7,29.33,WSW,243,1.0,7.0,48,0.00,,,0.36,Wunderground v.1.15,2013-01-31 22:45:00,
2013-01-31 17:54:00,35.3,17.1,29.33,West,275,0.0,7.0,47,0.00,,,0.36,Wunderground v.1.15,2013-01-31 22:54:00,
2013-01-31 17:59:00,35.0,17.7,29.34,WSW,244,0.0,7.0,49,0.00,,,0.36,Wunderground v.1.15,2013-01-31 22:59:00,
2013-01-31 18:09:00,34.9,16.7,29.34,SSW,206,1.0,1.0,47,0.00,,,0.36,Wunderground v.1.15,2013-01-31 23:09:00,
2013-01-31 18:14:00,34.7,16.5,29.35,NNW,333,1.0,7.0,47,0.00,,,0.36,Wunderground v.1.15,2013-01-31 23:14:00,
2013-01-31 18:19:00,34.7,17.0,29.35,WSW,253,0.0,7.0,48,0.00,,,0.36,Wunderground v.1.15,2013-01-31 23:19:00,
2013-01-31 18:24:00,34.6,16.9,29.35,North,6,0.0,7.0,48,0.00,,,0.36,Wunderground v.1.15,2013-01-31 23:24:00,
2013-01-31 18:29:00,34.4,16.2,29.36,SW,233,1.0,7.0,47,0.00,,,0.36,Wunderground v.1.15,2013-01-31 23:29:00,
2013-01-31 18:39:00,34.1,15.9,29.36,SW,224,0.0,7.0,47,0.00,,,0.36,Wunderground v.1.15,2013-01-31 23:39:00,
2013-01-31 18:44:00,34.1,15.5,29.37,NNW,347,1.0,7.0,46,0.00,,,0.36,Wunderground v.1.15,2013-01-31 23:44:00,
2013-01-31 18:49:00,34.0,15.4,29.37,WSW,248,1.0,1.0,46,0.00,,,0.36,Wunderground v.1.15,2013-01-31 23:49:00,
2013-01-31 18:55:00,34.0,15.9,29.37,West,264,1.0,7.0,47,0.00,,,0.36,Wunderground v.1.15,2013-01-31 23:55:00,
2013-01-31 19:00:00,33.8,16.2,29.38,West,260,0.0,7.0,48,0.00,,,0.36,Wunderground v.1.15,2013-02-01 00:00:00,
2013-01-31 19:05:00,33.7,16.1,29.38,WSW,250,0.0,7.0,48,0.00,,,0.36,Wunderground v.1.15,2013-02-01 00:05:00,
2013-01-31 19:14:00,33.4,16.3,29.39,South,172,0.0,7.0,49,0.00,,,0.36,Wunderground v.1.15,2013-02-01 00:14:00,
2013-01-31 19:20:00,33.2,16.5,29.39,WNW,288,0.0,7.0,50,0.00,,,0.36,Wunderground v.1.15,2013-02-01 00:20:00,
2013-01-31 19:25:00,33.2,16.5,29.39,SE,143,1.0,7.0,50,0.00,,,0.36,Wunderground v.1.15,2013-02-01 00:25:00,
2013-01-31 19:30:00,33.2,15.6,29.40,West,263,1.0,1.0,48,0.00,,,0.36,Wunderground v.1.15,2013-02-01 00:30:00,
2013-01-31 19:35:00,33.2,16.1,29.40,SSW,208,1.0,7.0,49,0.00,,,0.36,Wunderground v.1.15,2013-02-01 00:35:00,
2013-01-31 19:45:00,33.1,16.0,29.41,WSW,251,1.0,7.0,49,0.00,,,0.36,Wunderground v.1.15,2013-02-01 00:45:00,
2013-01-31 19:50:00,33.1,16.5,29.41,NNW,332,1.0,1.0,50,0.00,,,0.36,Wunderground v.1.15,2013-02-01 00:50:00,
2013-01-31 19:55:00,33.1,17.4,29.41,WNW,296,1.0,7.0,52,0.00,,,0.36,Wunderground v.1.15,2013-02-01 00:55:00,
2013-01-31 20:00:00,32.9,16.3,29.41,NW,316,1.0,1.0,50,0.00,,,0.36,Wunderground v.1.15,2013-02-01 01:00:00,
2013-01-31 20:05:00,32.9,17.2,29.41,SW,233,1.0,7.0,52,0.00,,,0.36,Wunderground v.1.15,2013-02-01 01:05:00,
2013-01-31 20:10:00,32.9,17.6,29.41,SE,140,1.0,1.0,53,0.00,,,0.36,Wunderground v.1.15,2013-02-01 01:10:00,
2013-01-31 20:20:00,32.7,17.9,29.42,NNW,332,1.0,7.0,54,0.00,,,0.36,Wunderground v.1.15,2013-02-01 01:20:00,
2013-01-31 20:25:00,32.4,16.7,29.42,SSW,205,1.0,7.0,52,0.00,,,0.36,Wunderground v.1.15,2013-02-01 01:25:00,
2013-01-31 20:30:00,32.2,16.1,29.43,WNW,299,1.0,1.0,51,0.00,,,0.36,Wunderground v.1.15,2013-02-01 01:30:00,
2013-01-31 20:39:00,31.9,16.2,29.43,WSW,251,1.0,1.0,52,0.00,,,0.36,Wunderground v.1.15,2013-02-01 01:39:00,
2013-01-31 20:44:00,31.8,15.7,29.44,WNW,284,1.0,7.0,51,0.00,,,0.36,Wunderground v.1.15,2013-02-01 01:44:00,
2013-01-31 20:54:00,31.6,15.5,29.44,West,278,1.0,2.0,51,0.00,,,0.36,Wunderground v.1.15,2013-02-01 01:54:00,
2013-01-31 20:59:00,31.5,14.5,29.44,SSW,205,1.0,1.0,49,0.00,,,0.36,Wunderground v.1.15,2013-02-01 01:59:00,
2013-01-31 21:04:00,31.5,14.5,29.44,NW,315,1.0,7.0,49,0.00,,,0.36,Wunderground v.1.15,2013-02-01 02:04:00,
2013-01-31 21:09:00,31.3,14.3,29.44,North,353,1.0,1.0,49,0.00,,,0.36,Wunderground v.1.15,2013-02-01 02:09:00,
2013-01-31 21:14:00,31.3,14.8,29.44,WSW,258,1.0,7.0,50,0.00,,,0.36,Wunderground v.1.15,2013-02-01 02:14:00,
2013-01-31 21:24:00,31.2,15.2,29.44,West,281,1.0,7.0,51,0.00,,,0.36,Wunderground v.1.15,2013-02-01 02:24:00,
2013-01-31 21:29:00,31.0,15.0,29.45,SSW,196,1.0,1.0,51,0.00,,,0.36,Wunderground v.1.15,2013-02-01 02:29:00,
2013-01-31 21:35:00,31.0,15.4,29.45,WNW,302,1.0,2.0,52,0.00,,,0.36,Wunderground v.1.15,2013-02-01 02:35:00,
2013-01-31 21:40:00,30.9,14.0,29.45,WNW,299,1.0,1.0,49,0.00,,,0.36,Wunderground v.1.15,2013-02-01 02:40:00,
2013-01-31 21:45:00,30.9,14.4,29.46,WNW,287,1.0,2.0,50,0.00,,,0.36,Wunderground v.1.15,2013-02-01 02:45:00,
2013-01-31 21:50:00,30.7,14.7,29.46,WSW,243,1.0,7.0,51,0.00,,,0.36,Wunderground v.1.15,2013-02-01 02:50:00,
2013-01-31 22:00:00,30.6,12.2,29.46,West,268,1.0,7.0,46,0.00,,,0.36,Wunderground v.1.15,2013-02-01 03:00:00,
2013-01-31 22:05:00,30.6,12.7,29.46,West,271,1.0,7.0,47,0.00,,,0.36,Wunderground v.1.15,2013-02-01 03:05:00,
2013-01-31 22:10:00,30.6,12.2,29.46,North,0,1.0,7.0,46,0.00,,,0.36,Wunderground v.1.15,2013-02-01 03:10:00,
2013-01-31 22:15:00,30.6,11.7,29.47,West,265,1.0,7.0,45,0.00,,,0.36,Wunderground v.1.15,2013-02-01 03:15:00,
2013-01-31 22:20:00,30.4,12.1,29.47,WSW,244,1.0,1.0,46,0.00,,,0.36,Wunderground v.1.15,2013-02-01 03:20:00,
2013-01-31 22:30:00,30.3,11.5,29.48,NW,306,1.0,1.0,45,0.00,,,0.36,Wunderground v.1.15,2013-02-01 03:30:00,
2013-01-31 22:35:00,30.3,11.5,29.48,WNW,301,1.0,7.0,45,0.00,,,0.36,Wunderground v.1.15,2013-02-01 03:35:00,
2013-01-31 22:40:00,30.1,11.8,29.48,SE,128,0.0,7.0,46,0.00,,,0.36,Wunderground v.1.15,2013-02-01 03:40:00,
2013-01-31 22:45:00,30.1,11.8,29.48,East,99,0.0,7.0,46,0.00,,,0.36,Wunderground v.1.15,2013-02-01 03:45:00,
2013-01-31 22:54:00,30.1,11.3,29.48,West,274,1.0,7.0,45,0.00,,,0.36,Wunderground v.1.15,2013-02-01 03:54:00,
2013-01-31 23:00:00,30.0,10.7,29.48,WNW,285,0.0,7.0,44,0.00,,,0.36,Wunderground v.1.15,2013-02-01 04:00:00,
2013-01-31 23:09:00,29.8,11.0,29.48,SW,219,1.0,1.0,45,0.00,,,0.36,Wunderground v.1.15,2013-02-01 04:09:00,
2013-01-31 23:14:00,29.8,11.0,29.48,WNW,296,0.0,7.0,45,0.00,,,0.36,Wunderground v.1.15,2013-02-01 04:14:00,
2013-01-31 23:19:00,29.7,11.9,29.48,South,169,0.0,7.0,47,0.00,,,0.36,Wunderground v.1.15,2013-02-01 04:19:00,
2013-01-31 23:24:00,29.7,11.4,29.48,WSW,243,0.0,7.0,46,0.00,,,0.36,Wunderground v.1.15,2013-02-01 04:24:00,
2013-01-31 23:29:00,29.5,11.7,29.49,North,0,0.0,7.0,47,0.00,,,0.36,Wunderground v.1.15,2013-02-01 04:29:00,
2013-01-31 23:39:00,29.4,11.1,29.49,SSW,200,1.0,1.0,46,0.00,,,0.36,Wunderground v.1.15,2013-02-01 04:39:00,
2013-01-31 23:44:00,29.4,10.6,29.49,WNW,299,1.0,2.0,45,0.00,,,0.36,Wunderground v.1.15,2013-02-01 04:44:00,
2013-01-31 23:49:00,29.4,10.6,29.49,SSE,162,1.0,1.0,45,0.00,,,0.36,Wunderground v.1.15,2013-02-01 04:49:00,
2013-01-31 23:55:00,29.4,11.6,29.49,WSW,241,1.0,7.0,47,0.00,,,0.36,Wunderground v.1.15,2013-02-01 04:55:00,